Regional Weather Roundup
Issued by NWS

Home | Current Version | Previous Version | Text Only | Print | Product List | Glossary On
Versions: 1 2 3 4 5 6 7 8 9 10 11 12 13 14 15 16 17 18 19 20 21 22 23 24 25 26 27 28 29 30 31 32 33 34 35 36 37 38 39 40 41 42 43 44 45 46 47 48 49 50
000
ASUS44 KBMX 200610
RWRAL

ALABAMA REGIONAL WEATHER ROUNDUP
NATIONAL WEATHER SERVICE BIRMINGHAM AL
1200 AM CST SAT DEC 20 2014

NOTE: "FAIR" INDICATES FEW OR NO CLOUDS BELOW 12,000 FEET
WITH NO SIGNIFICANT WEATHER AND/OR OBSTRUCTIONS TO VISIBILITY.

THE REMARK "TC" DENOTES TEMPERATURE IN DEGREES CELSIUS.

ALZ001>011-014-016>018-020-200700-
NORTH ALABAMA

CITY           SKY/WX    TMP DP  RH WIND       PRES   REMARKS
MUSCLE SHOALS  CLOUDY    39  31  72 CALM      30.20F
6HR MIN TEMP:  39; 6HR MAX TEMP:  42; 6HR PCP: TRACE;

HUNTSVILLE     CLOUDY    40  31  70 NE8       30.18F WCI  34
6HR MIN TEMP:  40; 6HR MAX TEMP:  42; 6HR PCP: TRACE;

DECATUR        CLOUDY    39  30  70 NE6       30.18F WCI  35
6HR MIN TEMP:  38; 6HR MAX TEMP:  41; 6HR PCP: TRACE;

HALEYVILLE     LGT RAIN  35  33  92 CALM      30.20F
6HR MIN TEMP:  35; 6HR MAX TEMP:  38; 6HR PCP:  0.04;

GADSDEN        CLOUDY    41  37  87 CALM      30.15F
6HR MIN TEMP:  41; 6HR MAX TEMP:  45; 6HR PCP:  0.07;

$$

ALZ012-013-022-023-030>036-040>044-200700-
WEST CENTRAL ALABAMA

CITY           SKY/WX    TMP DP  RH WIND       PRES   REMARKS
TUSCALOOSA     LGT RAIN  42  39  89 N8        30.19F
6HR MIN TEMP:  42; 6HR MAX TEMP:  45; 6HR PCP:  0.14;

$$

ALZ015-024>027-033>036-040>044-200700-
CENTRAL ALABAMA

CITY           SKY/WX    TMP DP  RH WIND       PRES   REMARKS
BIRMINGHAM     CLOUDY    41  39  93 NW7       30.18S FOG
6HR MIN TEMP:  41; 6HR MAX TEMP:  44; 6HR PCP:  0.13;

MONTGOMERY     CLOUDY    46  43  89 CALM      30.15F
6HR MIN TEMP:  45; 6HR MAX TEMP:  49; 6HR PCP:  0.14;

SHELBY CO ARPT LGT RAIN  42  40  92 NE3       30.15F FOG
6HR MIN TEMP:  42; 6HR MAX TEMP:  47; 6HR PCP:  0.32;

MAXWELL AFB    DRIZZLE   45  43  94 NE3       30.14F
6HR MIN TEMP:  45; 6HR MAX TEMP:  47; 6HR PCP:  0.16;

GREENVILLE     LGT RAIN  45  43  93 E6        30.11  FOG
6HR MIN TEMP:  45; 6HR MAX TEMP:  48; 6HR PCP:  0.20;

$$

ALZ019-021-028-029-037-038-045>048-200700-
EAST CENTRAL ALABAMA

CITY           SKY/WX    TMP DP  RH WIND       PRES   REMARKS
ANNISTON       LGT RAIN  42  40  92 CALM      30.15F
6HR MIN TEMP:  42; 6HR MAX TEMP:  47; 6HR PCP:  0.15;

ALEXANDER CITY RAIN      44  40  84 CALM      30.14F
6HR MIN TEMP:  44; 6HR MAX TEMP:  49; 6HR PCP:  0.17;

AUBURN         CLOUDY    41  37  87 E5        30.17F
6HR MIN TEMP:  41; 6HR MAX TEMP:  46; 6HR PCP:  0.05;

$$

ALZ051>064-200700-
SOUTHWEST ALABAMA

CITY           SKY/WX    TMP DP  RH WIND       PRES   REMARKS
MOBILE         CLOUDY    45  45 100 NE10      30.10F
6HR MIN TEMP:  45; 6HR MAX TEMP:  47; 6HR PCP:  0.38;

BROOKLEY FIELD CLOUDY    49  47  93 N8        30.12S
6HR MIN TEMP:  49; 6HR MAX TEMP:  51; 6HR PCP:  0.24;

EVERGREEN      CLOUDY    47  45  93 NE6       30.12F
6HR MIN TEMP:  47; 6HR MAX TEMP:  49; 6HR PCP:  0.41;

$$

ALZ049-050-065>069-200700-
SOUTHEAST ALABAMA

CITY           SKY/WX    TMP DP  RH WIND       PRES   REMARKS
DOTHAN         LGT RAIN  47  46  97 N6        30.16F FOG
6HR MIN TEMP:  47; 6HR MAX TEMP:  52; 6HR PCP:  0.21;

OZARK          RAIN      46  45  93 N8        30.13F FOG
                                      6HR PCP:  0.22;

TROY           LGT RAIN  46  44  93 E3        30.15F
6HR MIN TEMP:  46; 6HR MAX TEMP:  48; 6HR PCP:  0.13;

EUFAULA        LGT RAIN  48  45  89 CALM      30.14S
6HR MIN TEMP:  47; 6HR MAX TEMP:  53; 6HR PCP:  0.07;

$$


USA.gov is the U.S. government's official web portal to all federal, state and local government web resources and services.